Location: Unspecified
(42.0334°N, 93.6656°W)
Time: 16:58:50
(UTC-05:00)

Amateur Radio Satellites - All Passes

Search period start: 25 August 2016 16:28
Search period end: 26 August 2016 16:28
Location: Unspecified, 42.0334°N, 93.6656°W

Satellite Date Start Highest point End Downlink Frequencies (MHz)
Time Altitude Azimuth
ISS 25 Aug 16:29:46 16:33:04 85° 35° (NE) 16:36:21 145.825
KKS-1 25 Aug 16:31:30 16:35:13 25° 95° (E) 16:38:53 437.445
HORYU 2 25 Aug 16:52:00 16:56:07 37° 70° (ENE) 17:00:13 437.375
AO-85 25 Aug 16:52:55 16:54:50 13° 252° (WSW) 16:56:42 145.980
NOAA 15 25 Aug 17:01:28 17:04:16 15° 59° (ENE) 17:07:03 137.62
SWISSCUBE 25 Aug 17:04:07 17:07:22 19° 297° (WNW) 17:10:36 437.505
Cosmos 2491 25 Aug 17:04:24 17:06:13 11° 72° (ENE) 17:08:02 435.465 / 435.565
NOAA 18 25 Aug 17:11:16 17:14:03 14° 57° (ENE) 17:16:50 137.9125
STARS 25 Aug 17:14:00 17:18:02 34° 97° (E) 17:22:02 437.465
YUBILEINY 25 Aug 17:16:28 17:24:16 34° 69° (ENE) 17:31:57 435.215
BEESAT 25 Aug 17:22:11 17:24:39 14° 299° (WNW) 17:27:08 436.000
CUBESAT XI-V 25 Aug 17:32:31 17:35:56 20° 92° (E) 17:39:20 437.345
GOMX 1 25 Aug 17:39:38 17:43:29 22° 64° (ENE) 17:47:30 467.674
BRITE-PL 25 Aug 17:49:59 17:54:37 54° 72° (ENE) 17:59:40 437.365/2234.400
MOZHAYETS 4 25 Aug 17:55:50 17:59:54 32° 291° (WNW) 18:03:58
AO-7 25 Aug 17:59:04 18:04:09 17° 270° (W) 18:09:15 29.400- 29.500
DOVE 4 25 Aug 17:59:25 18:02:38 17° 61° (ENE) 18:05:54 437.250
KKS-1 25 Aug 18:07:50 18:11:47 31° 292° (WNW) 18:15:41 437.445
ISS 25 Aug 18:07:57 18:09:04 11° 230° (SW) 18:10:10 145.825
Cubesat XI-IV 25 Aug 18:16:20 18:21:30 51° 71° (ENE) 18:26:40 437.490
BEESAT 2 25 Aug 18:24:22 18:24:43 10° 36° (NE) 18:25:04 435.950
CUTE-I 25 Aug 18:28:51 18:34:08 67° 73° (ENE) 18:39:26 437.470
HORYU 2 25 Aug 18:29:21 18:32:45 21° 266° (W) 18:36:10 437.375
LilacSat-2 25 Aug 18:29:35 18:33:23 61° 75° (ENE) 18:37:11 437.200
NOAA 15 25 Aug 18:38:05 18:43:20 80° 256° (WSW) 18:48:38 137.62
BEESAT 3 25 Aug 18:45:11 18:48:27 24° 46° (NE) 18:51:40 437.485
HO-68 25 Aug 18:46:06 18:51:23 23° 56° (ENE) 18:56:40 435.675
NOAA 18 25 Aug 18:48:21 18:53:55 89° 249° (WSW) 18:59:30 137.9125
STARS 25 Aug 18:50:45 18:54:11 23° 294° (WNW) 18:57:36 437.465
Cosmos 2491 25 Aug 18:52:37 19:01:08 64° 92° (E) 19:09:46 435.465 / 435.565
CINEMA 3 25 Aug 18:57:38 19:00:53 18° 63° (ENE) 19:04:07 145.822/145.860
Cosmos 2504 25 Aug 19:01:31 19:08:35 50° 76° (ENE) 19:15:29 435.465 / 435.565
CUBESAT XI-V 25 Aug 19:09:02 19:13:30 43° 289° (WNW) 19:17:56 437.345
YUBILEINY 25 Aug 19:12:57 19:21:25 55° 270° (W) 19:29:48 435.215
GOMX 1 25 Aug 19:16:18 19:21:08 49° 262° (W) 19:26:18 467.674
BRITE-PL 25 Aug 19:30:23 19:33:32 17° 271° (W) 19:36:51 437.365/2234.400
STRAND 1 25 Aug 19:32:18 19:35:50 19° 92° (E) 19:39:21 437.568
CUBEBUG 2 25 Aug 19:33:49 19:34:58 11° 61° (ENE) 19:36:06 437.445
DOVE 4 25 Aug 19:34:35 19:39:40 69° 259° (W) 19:44:59 437.250
Cubesat XI-IV 25 Aug 19:57:52 20:01:50 21° 267° (W) 20:05:49 437.490
BEESAT 2 25 Aug 19:59:19 20:03:19 67° 55° (NE) 20:07:18 435.950
AIST 1 25 Aug 20:00:23 20:02:14 12° 68° (ENE) 20:04:05
SEEDS 25 Aug 20:04:45 20:08:33 36° 71° (ENE) 20:12:23 437.485
CUTE-I 25 Aug 20:11:28 20:14:38 16° 269° (W) 20:17:49 437.470
CANX-2 25 Aug 20:21:02 20:25:15 87° 254° (WSW) 20:29:29 2200.000
BEESAT 3 25 Aug 20:22:34 20:26:10 34° 244° (WSW) 20:29:46 437.485
CUTE 1.7 + AOD 2 25 Aug 20:27:37 20:31:49 85° 254° (WSW) 20:36:03 437.475
HO-68 25 Aug 20:31:09 20:38:21 77° 255° (WSW) 20:45:36 435.675
CINEMA 3 25 Aug 20:32:33 20:37:31 61° 260° (W) 20:42:29 145.822/145.860
NOAA 18 25 Aug 20:33:27 20:35:17 12° 271° (W) 20:37:07 137.9125
PCSat 25 Aug 20:40:13 20:44:15 20° 44° (NE) 20:48:14 145.827
AAUSAT CUBESAT 2 25 Aug 20:42:23 20:46:22 52° 73° (ENE) 20:50:22 437.432
COMPASS 1 25 Aug 20:47:59 20:52:06 79° 76° (ENE) 20:56:14 437.405
Cosmos 2491 25 Aug 20:51:19 20:58:36 29° 293° (WNW) 21:05:58 435.465 / 435.565
Cosmos 2504 25 Aug 20:55:35 21:01:32 28° 276° (W) 21:07:25 435.465 / 435.565
Oscar 11 25 Aug 21:04:42 21:08:40 37° 71° (ENE) 21:12:39 145.826/435.025
CUBEBUG 2 25 Aug 21:06:10 21:10:53 88° 245° (WSW) 21:15:32 437.445
DELFI C3 25 Aug 21:07:17 21:09:41 16° 65° (ENE) 21:12:04 145.870
UWE-3 25 Aug 21:08:49 21:13:23 67° 75° (ENE) 21:17:52 435.000/436.395/437.385
FUNcube-1 25 Aug 21:08:51 21:12:59 39° 72° (ENE) 21:17:05 145.935
STRAND 1 25 Aug 21:10:21 21:15:19 53° 289° (WNW) 21:20:15 437.568
PRISM 25 Aug 21:28:06 21:31:47 29° 97° (E) 21:35:25 437.425
ZACube-1 25 Aug 21:28:40 21:33:09 70° 75° (ENE) 21:37:32 437.345
M-CUBED/EXP-1 PRIME 25 Aug 21:35:34 21:37:21 12° 54° (NE) 21:39:09 437.505
AIST 1 25 Aug 21:35:56 21:40:17 62° 265° (W) 21:44:36
BEESAT 2 25 Aug 21:39:24 21:40:35 11° 252° (WSW) 21:41:45 435.950
SEEDS 25 Aug 21:41:26 21:44:22 19° 267° (W) 21:47:19 437.485
AIST 2 25 Aug 21:51:25 21:55:26 44° 52° (NE) 21:59:27 435.215
Cosmos 2499 25 Aug 22:16:38 22:17:38 10° 57° (ENE) 22:18:38 435.465 / 435.565
AAUSAT CUBESAT 2 25 Aug 22:20:20 22:22:10 13° 270° (W) 22:24:00 437.432
PCSat 25 Aug 22:22:47 22:28:11 73° 244° (WSW) 22:33:35 145.827
HO-68 25 Aug 22:24:11 22:27:09 13° 273° (W) 22:30:07 435.675
HUMSAT D 25 Aug 22:34:47 22:38:57 77° 76° (ENE) 22:43:06 437.325/437.525
DELFI C3 25 Aug 22:40:29 22:44:11 40° 262° (W) 22:47:56 145.870
ESTCUBE 1 25 Aug 22:41:23 22:44:14 17° 63° (ENE) 22:47:05 437.505/2401.250
Oscar 11 25 Aug 22:41:49 22:44:55 19° 267° (W) 22:48:03 145.826/435.025
TIGRISAT 25 Aug 22:45:04 22:48:13 20° 93° (E) 22:51:20 435.000
FUNcube-1 25 Aug 22:46:08 22:49:22 19° 267° (W) 22:52:34 145.935
UWE-3 25 Aug 22:48:23 22:50:14 12° 270° (W) 22:52:05 435.000/436.395/437.385
AISAT 25 Aug 22:59:10 23:01:42 15° 62° (ENE) 23:04:15 437.250
AUBIESAT-1 25 Aug 23:02:50 23:07:24 66° 69° (ENE) 23:12:02 437.475
PRISM 25 Aug 23:03:34 23:06:57 24° 293° (WNW) 23:10:20 437.425
M-CUBED/EXP-1 PRIME 25 Aug 23:06:27 23:11:07 87° 72° (ENE) 23:15:52 437.505
ZACube-1 25 Aug 23:08:34 23:09:51 11° 271° (W) 23:11:08 437.345
UNISAT 6 25 Aug 23:12:15 23:16:21 41° 98° (E) 23:20:23 437.425
UKube-1 25 Aug 23:20:44 23:22:36 13° 61° (ENE) 23:24:30 .
GONETS M04 25 Aug 23:27:09 23:35:47 52° 76° (ENE) 23:44:20
AIST 2 25 Aug 23:30:41 23:33:37 19° 249° (WSW) 23:36:32 435.215
CUSAT 1 25 Aug 23:32:50 23:34:19 13° 85° (E) 23:35:55 437.405
VELOX 1 25 Aug 23:44:49 23:48:58 40° 71° (ENE) 23:53:09 145.980
O/OREOS (USA 219) 25 Aug 23:47:24 23:51:09 24° 57° (ENE) 23:54:54 437.305
SO-50 25 Aug 23:47:30 23:51:03 20° 111° (ESE) 23:54:36 436.795
ANTELSAT 25 Aug 23:49:12 23:53:31 75° 285° (WNW) 23:57:45 437.575/2403.000
CUBEBUG 1 25 Aug 23:52:22 23:56:40 58° 74° (ENE) 00:01:03 437.445
Cosmos 2499 26 Aug 00:05:17 00:12:21 66° 80° (E) 00:19:24 435.465 / 435.565
50 SAT 26 Aug 00:06:50 00:10:23 69° 75° (ENE) 00:13:58 437.505
DX 1 26 Aug 00:09:19 00:13:32 51° 73° (ENE) 00:17:48 434.975-435.025
QB50P1 26 Aug 00:12:22 00:15:59 27° 96° (E) 00:19:34 145.935-145.965
ESTCUBE 1 26 Aug 00:16:17 00:20:38 50° 260° (W) 00:25:01 437.505/2401.250
JAS-2 26 Aug 00:18:41 00:24:05 24° 93° (E) 00:29:52 435.910
SPROUT 26 Aug 00:20:09 00:24:18 47° 72° (ENE) 00:28:28 437.525
TIGRISAT 26 Aug 00:21:06 00:25:02 35° 290° (WNW) 00:28:55 435.000
POPSAT HIP 1 26 Aug 00:22:00 00:25:51 34° 97° (E) 00:29:40 437.405
BUGSAT 1 26 Aug 00:22:34 00:24:24 13° 90° (E) 00:26:14 437.445
AISAT 26 Aug 00:33:18 00:37:41 57° 259° (W) 00:42:06 437.250
AUBIESAT-1 26 Aug 00:39:51 00:42:13 14° 265° (W) 00:44:36 437.475
M-CUBED/EXP-1 PRIME 26 Aug 00:45:21 00:46:10 10° 267° (W) 00:47:00 437.505
TISAT 1 26 Aug 00:47:55 00:51:12 22° 67° (ENE) 00:54:29 437.305
UNISAT 6 26 Aug 00:49:50 00:52:45 18° 295° (WNW) 00:55:38 437.425
QB50P2 26 Aug 00:51:35 00:55:51 81° 103° (ESE) 01:00:03 145.880/145.840
DUCHIFAT 1 26 Aug 00:52:02 00:56:14 67° 101° (E) 01:00:23 145.980
UKube-1 26 Aug 00:53:48 00:58:06 66° 258° (WSW) 01:02:25 .
POLYITAN 1 26 Aug 00:54:08 00:58:23 82° 106° (ESE) 01:02:34 437.675
NANOSAT C BR1 26 Aug 01:04:47 01:09:01 81° 284° (WNW) 01:13:12 145.865
CUSAT 1 26 Aug 01:13:52 01:16:03 19° 292° (WNW) 01:18:32 437.405
BEESAT 26 Aug 01:16:31 01:17:01 10° 58° (ENE) 01:17:31 436.000
VELOX 1 26 Aug 01:22:25 01:25:35 19° 267° (W) 01:28:47 145.980
GONETS M04 26 Aug 01:24:31 01:32:14 35° 276° (W) 01:39:57
O/OREOS (USA 219) 26 Aug 01:26:25 01:30:39 37° 255° (WSW) 01:34:52 437.305
SO-50 26 Aug 01:26:26 01:31:11 52° 308° (NW) 01:35:54 436.795
CUBEBUG 1 26 Aug 01:31:18 01:33:20 13° 270° (W) 01:35:25 437.445
Oscar 19 26 Aug 01:31:35 01:34:37 15° 90° (E) 01:37:38 437.125/150
RS-15 26 Aug 01:43:29 01:54:21 51° 110° (ESE) 02:05:45 29.354- 29.394
DX 1 26 Aug 01:47:33 01:50:01 15° 268° (W) 01:52:31 434.975-435.025
QB50P1 26 Aug 01:48:10 01:51:41 26° 292° (WNW) 01:55:10 145.935-145.965
DANDE 26 Aug 01:51:19 01:53:18 19° 288° (WNW) 01:55:22 436.750
BUGSAT 1 26 Aug 01:56:03 02:00:07 53° 287° (WNW) 02:04:06 437.445
SPROUT 26 Aug 01:57:55 02:00:30 15° 269° (W) 02:03:04 437.525
POPSAT HIP 1 26 Aug 01:58:14 02:01:26 21° 293° (WNW) 02:04:36 437.405
ITUPSAT 1 26 Aug 01:58:41 02:02:35 26° 66° (ENE) 02:06:32 437.325
Cosmos 2499 26 Aug 01:59:47 02:04:43 21° 278° (W) 02:09:39 435.465 / 435.565
JAS-2 26 Aug 02:02:49 02:09:24 65° 288° (WNW) 02:16:44 435.910
TISAT 1 26 Aug 02:22:48 02:26:38 33° 263° (W) 02:30:31 437.305
Gurwin Techsat 1B 26 Aug 02:24:43 02:28:53 23° 93° (E) 02:33:02 435.225
DUCHIFAT 1 26 Aug 02:29:52 02:31:21 12° 298° (WNW) 02:32:50 145.980
SWISSCUBE 26 Aug 02:31:58 02:36:38 62° 73° (ENE) 02:41:20 437.505
BEESAT 26 Aug 02:49:15 02:54:00 83° 74° (ENE) 02:58:47 436.000
Oscar 19 26 Aug 03:09:13 03:14:23 66° 287° (WNW) 03:19:32 437.125/150
SO-50 26 Aug 03:11:19 03:12:45 11° 328° (NNW) 03:14:11 436.795
MOZHAYETS 4 26 Aug 03:21:19 03:25:03 25° 67° (ENE) 03:28:47
KKS-1 26 Aug 03:29:57 03:33:37 25° 67° (ENE) 03:37:19 437.445
PHONESAT 2.4 26 Aug 03:32:13 03:34:51 28° 160° (SSE) 03:37:29 2401.200-2431.200
ITUPSAT 1 26 Aug 03:35:57 03:40:17 34° 263° (W) 03:44:37 437.325
JAS-2 26 Aug 03:50:48 03:53:25 13° 305° (NW) 03:56:09 435.910
RS-15 26 Aug 03:55:28 04:06:48 54° 315° (NW) 04:18:46 29.354- 29.394
AO-7 26 Aug 04:03:43 04:10:53 31° 96° (E) 04:17:59 29.400- 29.500
Gurwin Techsat 1B 26 Aug 04:03:59 04:09:03 46° 290° (WNW) 04:14:05 435.225
STARS 26 Aug 04:10:52 04:14:50 33° 69° (ENE) 04:18:49 437.465
SWISSCUBE 26 Aug 04:12:22 04:14:50 14° 269° (W) 04:17:20 437.505
ITAMSAT 1 26 Aug 04:18:58 04:24:10 79° 104° (ESE) 04:29:21 435.822/435.867
BEESAT 26 Aug 04:32:00 04:32:23 10° 271° (W) 04:32:45 436.000
CUBESAT XI-V 26 Aug 04:36:28 04:39:50 21° 65° (ENE) 04:43:14 437.345
MOZHAYETS 4 26 Aug 04:58:00 05:02:05 32° 264° (W) 05:06:10
Cosmos 2491 26 Aug 05:02:41 05:10:25 33° 69° (ENE) 05:18:07 435.465 / 435.565
KKS-1 26 Aug 05:06:03 05:10:03 32° 263° (W) 05:14:05 437.445
PHONESAT 2.4 26 Aug 05:08:00 05:10:58 63° 177° (S) 05:13:57 2401.200-2431.200
AO-85 26 Aug 05:25:30 05:29:25 21° 111° (ESE) 05:33:12 145.980
STARS 26 Aug 05:47:39 05:51:13 23° 265° (W) 05:54:48 437.465
BRITE-PL 26 Aug 05:54:43 05:58:59 21° 91° (E) 06:03:09 437.365/2234.400
AO-7 26 Aug 05:55:55 06:04:02 60° 295° (WNW) 06:12:07 29.400- 29.500
ITAMSAT 1 26 Aug 06:00:15 06:02:58 15° 301° (WNW) 06:05:41 435.822/435.867
CUBESAT XI-V 26 Aug 06:12:34 06:16:54 42° 262° (W) 06:21:19 437.345
RS-15 26 Aug 06:13:27 06:23:01 26° 346° (NNW) 06:32:49 29.354- 29.394
YUBILEINY 26 Aug 06:18:02 06:25:54 38° 85° (E) 06:33:47 435.215
HORYU 2 26 Aug 06:18:26 06:22:51 69° 102° (ESE) 06:27:14 437.375
Cubesat XI-IV 26 Aug 06:34:01 06:37:46 19° 92° (E) 06:41:31 437.490
PHONESAT 2.4 26 Aug 06:44:18 06:47:12 47° 192° (SSW) 06:50:06 2401.200-2431.200
CUTE-I 26 Aug 06:46:02 06:50:24 25° 94° (E) 06:54:43 437.470
STRAND 1 26 Aug 06:48:20 06:52:40 29° 66° (ENE) 06:57:00 437.568
NOAA 15 26 Aug 06:52:59 06:57:53 37° 97° (E) 07:02:47 137.62
Cosmos 2491 26 Aug 06:59:07 07:07:41 58° 270° (W) 07:16:15 435.465 / 435.565
AO-85 26 Aug 07:04:21 07:09:34 57° 306° (NW) 07:14:31 145.980
NOAA 18 26 Aug 07:10:19 07:15:21 37° 98° (E) 07:20:21 137.9125
GOMX 1 26 Aug 07:17:36 07:22:58 54° 99° (E) 07:28:04 467.674
BRITE-PL 26 Aug 07:32:09 07:37:45 57° 288° (WNW) 07:43:14 437.365/2234.400
DOVE 4 26 Aug 07:33:47 07:38:25 34° 95° (E) 07:42:48 437.250
LilacSat-2 26 Aug 07:36:39 07:40:26 89° 68° (ENE) 07:44:12 437.200
Cosmos 2504 26 Aug 07:39:21 07:47:15 45° 89° (E) 07:54:41 435.465 / 435.565
AO-7 26 Aug 07:51:06 07:55:07 15° 316° (NW) 07:59:09 29.400- 29.500
HORYU 2 26 Aug 07:56:57 07:58:50 13° 299° (WNW) 08:00:43 437.375
HO-68 26 Aug 07:59:45 08:04:47 20° 91° (E) 08:09:46 435.675
CANX-2 26 Aug 08:06:49 08:09:22 16° 92° (E) 08:11:56 2200.000
Cubesat XI-IV 26 Aug 08:12:59 08:18:10 55° 289° (WNW) 08:23:20 437.490
CUTE 1.7 + AOD 2 26 Aug 08:13:14 08:15:51 16° 92° (E) 08:18:27 437.475
YUBILEINY 26 Aug 08:14:00 08:22:27 49° 285° (WNW) 08:30:59 435.215
SO-50 26 Aug 08:17:42 08:21:24 23° 43° (NE) 08:24:59 436.795
PRISM 26 Aug 08:18:13 08:21:25 22° 67° (ENE) 08:24:38 437.425
PHONESAT 2.4 26 Aug 08:21:17 08:23:09 15° 208° (SSW) 08:25:01 2401.200-2431.200
CUTE-I 26 Aug 08:25:35 08:30:34 42° 291° (WNW) 08:35:32 437.470
STRAND 1 26 Aug 08:27:04 08:31:43 35° 263° (W) 08:36:23 437.568
CINEMA 3 26 Aug 08:27:38 08:31:42 31° 95° (E) 08:35:34 145.822/145.860
RS-15 26 Aug 08:30:43 08:41:01 29° 22° (NNE) 08:51:19 29.354- 29.394
COMPASS 1 26 Aug 08:32:15 08:33:56 12° 90° (E) 08:35:36 437.405
NOAA 15 26 Aug 08:32:59 08:37:31 29° 294° (WNW) 08:42:02 137.62
AO-85 26 Aug 08:48:56 08:51:00 12° 325° (NW) 08:53:03 145.980
NOAA 18 26 Aug 08:51:09 08:55:54 31° 295° (WNW) 09:00:37 137.9125
GOMX 1 26 Aug 08:56:30 09:00:34 22° 297° (WNW) 09:04:32 467.674
CUBEBUG 2 26 Aug 08:57:58 09:00:48 17° 92° (E) 09:03:36 437.445
UWE-3 26 Aug 09:00:21 09:01:53 12° 89° (E) 09:03:23 435.000/436.395/437.385
ISS 26 Aug 09:10:24 09:12:52 20° 133° (SE) 09:15:21 145.825
DOVE 4 26 Aug 09:11:36 09:15:58 29° 293° (WNW) 09:20:06 437.250
ANTELSAT 26 Aug 09:15:00 09:16:18 11° 61° (ENE) 09:17:35 437.575/2403.000
ZACube-1 26 Aug 09:18:46 09:20:20 12° 90° (E) 09:21:54 437.345
SEEDS 26 Aug 09:23:13 09:27:25 68° 102° (ESE) 09:31:36 437.485
Cosmos 2504 26 Aug 09:32:52 09:40:39 40° 287° (WNW) 09:48:01 435.465 / 435.565
CANX-2 26 Aug 09:41:25 09:45:27 45° 288° (WNW) 09:49:30 2200.000
TIGRISAT 26 Aug 09:44:02 09:47:27 21° 66° (ENE) 09:50:49 435.000
HO-68 26 Aug 09:46:00 09:53:10 76° 289° (WNW) 10:00:18 435.675
CUTE 1.7 + AOD 2 26 Aug 09:47:52 09:51:54 44° 288° (WNW) 09:55:55 437.475
PRISM 26 Aug 09:52:58 09:56:33 30° 263° (W) 10:00:13 437.425
SO-50 26 Aug 09:57:42 10:02:09 50° 242° (WSW) 10:06:27 436.795
AAUSAT CUBESAT 2 26 Aug 09:59:17 10:03:28 86° 279° (W) 10:07:38 437.432
CUSAT 1 26 Aug 10:00:34 10:05:48 27° 72° (ENE) 10:11:52 437.405
CINEMA 3 26 Aug 10:04:57 10:08:42 25° 293° (WNW) 10:12:18 145.822/145.860
AIST 1 26 Aug 10:05:07 10:09:26 76° 97° (E) 10:13:49
COMPASS 1 26 Aug 10:05:44 10:09:50 57° 286° (WNW) 10:13:55 437.405
UNISAT 6 26 Aug 10:11:01 10:15:21 41° 71° (ENE) 10:19:36 437.425
BEESAT 3 26 Aug 10:13:10 10:16:39 32° 115° (ESE) 10:20:10 437.485
DELFI C3 26 Aug 10:17:45 10:20:58 23° 95° (E) 10:24:10 145.870
HUMSAT D 26 Aug 10:19:58 10:21:15 11° 90° (E) 10:22:32 437.325/437.525
Oscar 11 26 Aug 10:26:59 10:31:18 74° 101° (E) 10:35:37 145.826/435.025
FUNcube-1 26 Aug 10:32:16 10:36:27 78° 104° (ESE) 10:40:34 145.935
CUBEBUG 2 26 Aug 10:33:39 10:37:38 39° 289° (WNW) 10:41:30 437.445
UWE-3 26 Aug 10:34:36 10:38:44 57° 287° (WNW) 10:42:48 435.000/436.395/437.385
DANDE 26 Aug 10:42:01 10:45:55 20° 73° (ENE) 10:50:32 436.750
RS-15 26 Aug 10:44:03 10:56:26 68° 51° (NE) 11:08:35 29.354- 29.394
ISS 26 Aug 10:45:53 10:49:06 50° 330° (NNW) 10:52:20 145.825
ANTELSAT 26 Aug 10:47:43 10:52:21 84° 259° (WSW) 10:56:55 437.575/2403.000
ZACube-1 26 Aug 10:52:55 10:57:00 56° 287° (WNW) 11:01:03 437.345
SEEDS 26 Aug 11:01:08 11:02:33 12° 298° (WNW) 11:03:59 437.485
QB50P1 26 Aug 11:05:22 11:08:42 23° 67° (ENE) 11:12:03 145.935-145.965
BUGSAT 1 26 Aug 11:13:49 11:14:56 11° 61° (ENE) 11:16:02 437.445
POPSAT HIP 1 26 Aug 11:14:51 11:18:30 28° 68° (ENE) 11:22:08 437.405
TIGRISAT 26 Aug 11:19:30 11:23:52 41° 262° (W) 11:28:11 435.000
PCSat 26 Aug 11:24:46 11:27:13 13° 103° (ESE) 11:29:40 145.827
BEESAT 2 26 Aug 11:28:45 11:32:41 73° 305° (NW) 11:36:41 435.950
HO-68 26 Aug 11:35:45 11:39:44 16° 308° (NW) 11:43:43 435.675
CUSAT 1 26 Aug 11:41:49 11:47:57 58° 264° (W) 11:55:23 437.405
CUBEBUG 1 26 Aug 11:43:22 11:44:14 10° 89° (E) 11:45:07 437.445
DUCHIFAT 1 26 Aug 11:43:55 11:48:02 51° 73° (ENE) 11:52:10 145.980
QB50P2 26 Aug 11:44:09 11:48:22 63° 75° (ENE) 11:52:37 145.880/145.840
POLYITAN 1 26 Aug 11:46:40 11:50:54 64° 74° (ENE) 11:55:09 437.675
UNISAT 6 26 Aug 11:48:46 11:52:12 20° 267° (W) 11:55:34 437.425
BEESAT 3 26 Aug 11:51:04 11:54:20 25° 313° (NW) 11:57:38 437.485
DELFI C3 26 Aug 11:52:23 11:55:47 27° 291° (WNW) 11:59:11 145.870
HUMSAT D 26 Aug 11:53:13 11:57:13 57° 286° (WNW) 12:01:14 437.325/437.525
NANOSAT C BR1 26 Aug 11:56:47 12:01:03 77° 74° (ENE) 12:05:19 145.865
Oscar 11 26 Aug 12:05:31 12:06:50 11° 299° (WNW) 12:08:08 145.826/435.025
ESTCUBE 1 26 Aug 12:08:21 12:12:25 32° 97° (E) 12:16:28 437.505/2401.250
AUBIESAT-1 26 Aug 12:16:20 12:20:15 42° 103° (ESE) 12:23:51 437.475
JAS-2 26 Aug 12:16:28 12:21:32 57° 71° (ENE) 12:26:54 435.910
M-CUBED/EXP-1 PRIME 26 Aug 12:20:31 12:24:40 60° 105° (ESE) 12:28:28 437.505
AISAT 26 Aug 12:23:26 12:27:09 25° 95° (E) 12:30:51 437.250
DANDE 26 Aug 12:23:34 12:28:42 60° 263° (W) 12:35:27 436.750
ISS 26 Aug 12:23:51 12:26:09 17° 349° (N) 12:28:27 145.825
GONETS M04 26 Aug 12:28:20 12:36:50 59° 91° (E) 12:45:25
QB50P1 26 Aug 12:40:26 12:44:17 32° 263° (W) 12:48:10 145.935-145.965
UKube-1 26 Aug 12:41:15 12:44:24 19° 94° (E) 12:47:32 .
Cosmos 2499 26 Aug 12:41:21 12:49:18 55° 92° (E) 12:56:42 435.465 / 435.565
BUGSAT 1 26 Aug 12:45:25 12:49:40 76° 258° (WSW) 12:53:56 437.445
Oscar 19 26 Aug 12:48:26 12:52:33 25° 64° (ENE) 12:56:41 437.125/150
POPSAT HIP 1 26 Aug 12:50:37 12:54:13 26° 265° (W) 12:57:50 437.405
RS-15 26 Aug 12:57:21 13:08:14 39° 254° (WSW) 13:18:56 29.354- 29.394
PCSat 26 Aug 13:04:25 13:09:50 84° 299° (WNW) 13:15:18 145.827
50 SAT 26 Aug 13:07:57 13:11:37 82° 103° (ESE) 13:15:16 437.505
BEESAT 2 26 Aug 13:10:17 13:11:14 11° 323° (NW) 13:12:11 435.950
VELOX 1 26 Aug 13:10:25 13:14:54 78° 103° (ESE) 13:19:21 145.980
CUBEBUG 1 26 Aug 13:16:34 13:21:01 73° 285° (WNW) 13:25:25 437.445
AO-7 26 Aug 13:18:14 13:20:02 11° 40° (NE) 13:21:50 29.400- 29.500
DUCHIFAT 1 26 Aug 13:21:45 13:24:00 14° 269° (W) 13:26:17 145.980
QB50P2 26 Aug 13:23:06 13:24:34 12° 270° (W) 13:26:03 145.880/145.840
POLYITAN 1 26 Aug 13:25:43 13:27:06 11° 270° (W) 13:28:31 437.675
AIST 2 26 Aug 13:27:04 13:31:10 82° 124° (SE) 13:35:19 435.215
DX 1 26 Aug 13:32:54 13:37:20 89° 274° (W) 13:41:42 434.975-435.025
SPROUT 26 Aug 13:41:15 13:45:34 89° 111° (ESE) 13:49:50 437.525
ESTCUBE 1 26 Aug 13:45:22 13:49:06 26° 293° (WNW) 13:52:50 437.505/2401.250
Gurwin Techsat 1B 26 Aug 13:45:57 13:50:50 38° 68° (ENE) 13:55:43 435.225
AUBIESAT-1 26 Aug 13:51:36 13:54:20 17° 302° (WNW) 13:56:55 437.475
M-CUBED/EXP-1 PRIME 26 Aug 13:56:30 13:58:36 14° 305° (NW) 14:00:39 437.505
AO-85 26 Aug 13:56:36 13:59:42 19° 41° (NE) 14:02:40 145.980
AISAT 26 Aug 13:59:41 14:03:37 31° 292° (WNW) 14:07:31 437.250
ITAMSAT 1 26 Aug 14:00:22 14:03:38 17° 61° (ENE) 14:06:52 435.822/435.867
O/OREOS (USA 219) 26 Aug 14:00:29 14:04:02 23° 102° (ESE) 14:07:37 437.305
ISS 26 Aug 14:01:16 14:03:33 17° 10° (N) 14:05:49 145.825
JAS-2 26 Aug 14:03:54 14:07:11 17° 270° (W) 14:10:34 435.910
TISAT 1 26 Aug 14:06:00 14:09:52 34° 98° (E) 14:13:40 437.305
UKube-1 26 Aug 14:16:33 14:20:35 38° 290° (WNW) 14:24:35 .
GONETS M04 26 Aug 14:26:34 14:34:07 32° 292° (WNW) 14:41:48
Oscar 19 26 Aug 14:26:42 14:31:35 43° 261° (W) 14:36:32 437.125/150
SWISSCUBE 26 Aug 14:33:03 14:35:49 15° 91° (E) 14:38:33 437.505
Cosmos 2499 26 Aug 14:35:45 14:42:42 30° 289° (WNW) 14:49:17 435.465 / 435.565
VELOX 1 26 Aug 14:49:13 14:50:43 12° 300° (WNW) 14:52:13 145.980
BEESAT 26 Aug 14:49:45 14:53:16 20° 93° (E) 14:56:46 436.000
PCSat 26 Aug 14:50:43 14:54:04 16° 320° (NW) 14:57:26 145.827
AO-7 26 Aug 15:02:53 15:10:42 46° 62° (ENE) 15:18:29 29.400- 29.500
AIST 2 26 Aug 15:08:00 15:10:13 14° 321° (NW) 15:12:26 435.215
Gurwin Techsat 1B 26 Aug 15:26:20 15:30:50 28° 265° (W) 15:35:22 435.225
ITUPSAT 1 26 Aug 15:35:22 15:40:04 57° 101° (E) 15:44:45 437.325
AO-85 26 Aug 15:36:23 15:40:32 53° 242° (WSW) 15:44:22 145.980
ITAMSAT 1 26 Aug 15:37:23 15:42:33 66° 258° (WSW) 15:47:43 435.822/435.867
ISS 26 Aug 15:37:24 15:40:37 47° 30° (NNE) 15:43:47 145.825
O/OREOS (USA 219) 26 Aug 15:39:08 15:43:14 34° 300° (WNW) 15:47:23 437.305
TISAT 1 26 Aug 15:42:07 15:45:17 21° 294° (WNW) 15:48:26 437.305
SWISSCUBE 26 Aug 16:09:17 16:13:58 58° 287° (WNW) 16:18:38 437.505
